CW7410 Weather Reports


Display with metric or nautical units.
time (UTC)temp
F
wind
direction
speed
MPH
gust
MPH
rain 1hr
in
rain 24hr
in
rain mn
in
humidity
%
barometer
mb
20260903213059 81 292 5.0 13.0 0.00 0.00 0.00 27 1011.0
20260903211615 81 287 6.0 11.0 0.00 0.00 0.00 28 1011.3
20260903210109 81 23 2.0 11.0 0.00 0.00 0.00 31 1011.7
20260903204604 81 213 3.0 11.0 0.00 0.00 0.00 30 1011.9
20260903203105 80 261 4.0 11.0 0.00 0.00 0.00 29 1012.1
20260903201603 80 175 4.0 10.0 0.00 0.00 0.00 30 1012.5
20260903200107 80 230 3.0 6.0 0.00 0.00 0.00 33 1012.7
20260903194602 79 0 1.0 9.0 0.00 0.00 0.00 33 1012.8
20260903193105 78 302 3.0 7.0 0.00 0.00 0.00 33 1013.1
20260903191603 78 119 1.0 8.0 0.00 0.00 0.00 32 1013.3
20260903190106 78 265 1.0 4.0 0.00 0.00 0.00 31 1013.6
20260903184604 77 290 3.0 8.0 0.00 0.00 0.00 32 1013.8
20260903183119 76 0 0.0 11.0 0.00 0.00 0.00 34 1014.0
20260903181623 76 227 3.0 10.0 0.00 0.00 0.00 36 1014.1
20260903180058 76 273 3.0 9.0 0.00 0.00 0.00 32 1014.2
20260903174603 75 280 2.0 8.0 0.00 0.00 0.00 33 1014.3
20260903173110 75 254 1.0 9.0 0.00 0.00 0.00 36 1014.4
20260903171605 75 207 2.0 8.0 0.00 0.00 0.00 35 1014.4
20260903170057 75 0 2.0 6.0 0.00 0.00 0.00 42 1014.5
20260903164608 74 193 0.0 6.0 0.00 0.00 0.00 45 1014.5
20260903163102 73 0 0.0 4.0 0.00 0.00 0.00 45 1014.4
20260903161615 71 295 1.0 4.0 0.00 0.00 0.00 47 1014.4
20260903160106 70 0 1.0 5.0 0.00 0.00 0.00 49 1014.4
20260903154603 69 0 1.0 4.0 0.00 0.00 0.00 52 1014.5
20260903153100 68 202 0.0 5.0 0.00 0.00 0.00 56 1014.5
20260903151614 66 197 1.0 5.0 0.00 0.00 0.00 59 1014.6
20260903150101 64 200 1.0 3.0 0.00 0.00 0.00 66 1014.6
20260903144559 61 202 2.0 4.0 0.00 0.00 0.00 74 1014.5
20260903143057 56 360 2.0 4.0 0.00 0.00 0.00 77 1014.4
20260903141605 53 82 1.0 4.0 0.00 0.00 0.00 78 1014.4
20260903134608 49 114 2.0 5.0 0.00 0.00 0.00 77 1014.0
20260903133100 49 41 4.0 6.0 0.00 0.00 0.00 76 1013.9
20260903131559 49 63 2.0 4.0 0.00 0.00 0.00 75 1013.8
20260903130104 49 68 1.0 3.0 0.00 0.00 0.00 75 1013.8
20260903124606 50 69 1.0 2.0 0.00 0.00 0.00 74 1013.7
20260903123055 50 0 0.0 2.0 0.00 0.00 0.00 74 1013.6
20260903121603 51 0 1.0 3.0 0.00 0.00 0.00 74 1013.6
20260903114601 52 67 0.0 2.0 0.00 0.00 0.00 73 1013.6
20260903113058 52 67 1.0 6.0 0.00 0.00 0.00 72 1013.5
20260903111557 51 82 3.0 7.0 0.00 0.00 0.00 71 1013.4
20260903110100 51 81 1.0 4.0 0.00 0.00 0.00 70 1013.5
20260903104601 52 97 2.0 4.0 0.00 0.00 0.00 69 1013.5
20260903103100 52 101 2.0 4.0 0.00 0.00 0.00 68 1013.5
20260903101610 53 9 1.0 3.0 0.00 0.00 0.00 67 1013.3
20260903094608 55 49 1.0 3.0 0.00 0.00 0.00 66 1013.1
20260903093057 56 140 1.0 4.0 0.00 0.00 0.00 64 1012.9
20260903091604 57 80 2.0 3.0 0.00 0.00 0.00 64 1012.9
20260903090100 57 80 0.0 2.0 0.00 0.00 0.00 63 1012.7
20260903084600 57 80 2.0 3.0 0.00 0.00 0.00 63 1012.6
20260903083059 57 0 0.0 2.0 0.00 0.00 0.00 62 1012.6
20260903081559 57 0 2.0 5.0 0.00 0.00 0.00 62 1012.7
20260903074559 57 320 2.0 5.0 0.00 0.00 0.00 62 1012.5
20260903073113 57 333 3.0 5.0 0.00 0.00 0.00 62 1012.4
20260903071556 58 300 2.0 3.0 0.00 0.00 0.00 61 1012.3
20260903070109 59 0 0.0 4.0 0.00 0.00 0.00 62 1012.2
20260903064602 59 360 1.0 6.0 0.00 0.00 0.00 59 1012.2
20260903063119 60 294 3.0 5.0 0.00 0.00 0.00 57 1012.1
20260903061557 60 328 3.0 6.0 0.00 0.00 0.00 55 1011.8
20260903060055 59 318 3.0 10.0 0.00 0.00 0.00 55 1011.9
20260903054559 58 321 6.0 9.0 0.00 0.00 0.00 57 1011.7
20260903053057 58 319 4.0 8.0 0.00 0.00 0.00 59 1011.8
20260903051601 58 360 2.0 3.0 0.00 0.00 0.00 59 1011.9
20260903050107 58 12 0.0 5.0 0.00 0.00 0.00 59 1011.8
20260903044559 58 351 3.0 5.0 0.00 0.00 0.00 59 1011.6
20260903043108 57 338 2.0 9.0 0.00 0.00 0.00 57 1011.8
20260903041559 58 282 3.0 8.0 0.00 0.00 0.00 59 1011.8
20260903040110 59 360 1.0 2.0 0.00 0.00 0.00 57 1011.5
20260903034600 60 360 2.0 4.0 0.00 0.00 0.00 56 1011.2
20260903033101 61 350 2.0 4.0 0.00 0.00 0.00 53 1011.2
20260903031559 63 360 2.0 4.0 0.00 0.00 0.00 51 1011.1
20260903030108 64 360 2.0 3.0 0.00 0.00 0.00 48 1011.0
20260903024603 66 360 1.0 3.0 0.00 0.00 0.00 47 1011.0
20260903023106 67 360 2.0 4.0 0.00 0.00 0.00 39 1010.9
20260903021601 69 360 3.0 6.0 0.00 0.00 0.00 34 1010.9
20260903020100 70 360 4.0 6.0 0.00 0.00 0.00 34 1010.9
20260903014602 73 360 3.0 8.0 0.00 0.00 0.00 30 1011.1
20260903013058 74 322 3.0 10.0 0.00 0.00 0.00 32 1011.1
20260903011558 75 360 5.0 11.0 0.00 0.00 0.00 27 1011.3
20260903010104 76 360 7.0 14.0 0.00 0.00 0.00 26 1011.4
20260903004623 77 317 7.0 16.0 0.00 0.00 0.00 28 1011.3
20260903003102 78 306 5.0 15.0 0.00 0.00 0.00 30 1011.4
20260903001559 79 313 9.0 15.0 0.00 0.00 0.00 28 1011.2
20260903000059 79 355 8.0 13.0 0.00 0.00 0.00 30 1011.1
20260902234601 79 327 6.0 14.0 0.00 0.00 0.00 30 1011.2
20260902233104 79 275 9.0 12.0 0.00 0.00 0.00 28 1011.3
20260902231600 79 313 5.0 12.0 0.00 0.00 0.00 31 1011.4
20260902230105 80 306 11.0 15.0 0.00 0.00 0.00 28 1011.4
20260902224601 80 273 8.0 15.0 0.00 0.00 0.00 29 1011.5
20260902223116 81 276 10.0 16.0 0.00 0.00 0.00 29 1011.4
20260902221600 81 273 8.0 13.0 0.00 0.00 0.00 30 1011.6
20260902220104 81 248 9.0 14.0 0.00 0.00 0.00 34 1011.7
20260902214558 81 262 5.0 12.0 0.00 0.00 0.00 36 1011.8